Miscellaneous Local Product
Issued by NWS Hastings, NE

Home | Current Version | Previous Version | Text Only | Print | Product List | Glossary On
Versions: 1 2 3 4 5 6 7 8 9 10 11 12 13 14 15 16 17 18 19 20 21 22 23 24 25 26 27 28 29 30 31 32 33 34 35 36 37 38 39 40 41 42 43 44 45 46 47 48 49 50
000
AXUS43 KGID 290302
MISGRI

GID CWA HOURLY WEATHER ROUNDUP
NATIONAL WEATHER SERVICE HASTINGS NE
900 PM CST FRI NOV 28 2014

NOTE: "FAIR" INDICATES FEW OR NO CLOUDS BELOW 12,000 FEET WITH NO
SIGNIFICANT WEATHER AND/OR OBSTRUCTIONS TO VISIBILITY.

...SOUTH CENTRAL NEBRASKA...

CITY           SKY/WX    TMP DP  RH WIND       PRES   REMARKS
GRAND ISLAND   MOCLDY    43  23  45 SW10      29.63F
HASTINGS       MOCLDY    48  19  31 SW6       29.65S
KEARNEY        MOCLDY    48  18  29 SW5       29.66F
ORD            MOCLDY    36  20  52 CALM      29.60F
YORK           PTCLDY    43  32  65 SW9       29.63F
AURORA         MOCLDY    42  26  52 SW8       29.63S
LEXINGTON      MOCLDY    42  17  37 NW7       29.66F
HOLDREGE       MOCLDY    53  14  21 SW5       29.67F
HEBRON         CLOUDY    53  32  44 SW14      29.66S

...NEBRASKA PANHANDLE...

CITY           SKY/WX    TMP DP  RH WIND       PRES   REMARKS
CHADRON        CLEAR    N/A N/A N/A W8        29.60F
ALLIANCE       PTCLDY    39  18  42 NW8       29.68S WCI  33
SCOTTSBLUFF    MOCLDY    42  22  44 W7        29.69F
SIDNEY         CLOUDY    43  21  41 W13       29.74F

...WESTERN AND NORTH CENTRAL NEBRASKA...

CITY           SKY/WX    TMP DP  RH WIND       PRES   REMARKS
VALENTINE      MOCLDY    44  25  47 CALM      29.56F
AINSWORTH      MOCLDY    47  23  39 SW9       29.57F
ONEILL         MOCLDY    41  29  63 S3        29.58F
BROKEN BOW     PTCLDY    52  21  29 W10       29.63F
IMPERIAL       MOCLDY    42  18  37 W5        29.72F
NORTH PLATTE   MOCLDY    33  22  63 CALM      29.69S
MCCOOK         MOCLDY    48  13  24 SW10      29.70S

...EASTERN NEBRASKA...

CITY           SKY/WX    TMP DP  RH WIND       PRES   REMARKS
NORFOLK        CLOUDY    35  29  78 CALM      29.58F
SO SIOUX CITY  MOCLDY    34  28  79 E7        29.61F WCI  28
TEKAMAH        CLOUDY    32  24  72 S7        29.62F WCI  26
COLUMBUS       MOCLDY    32  21  64 CALM      29.61F
ALBION         MOCLDY    35  23  61 CALM      29.61S
OMAHA EPPLEY   CLOUDY    39  31  72 SE13      29.63F WCI  31
OFFUTT AFB     CLOUDY    36  29  77 E6        29.62F WCI  31
MILLARD        CLOUDY    40  31  70 CALM      29.63F
LINCOLN        MOCLDY    50  32  50 SW10      29.64F
NEBRASKA CITY  MOCLDY    45  29  52 S13       29.64F
BEATRICE       CLOUDY    52  35  52 S13G18    29.66S
FALLS CITY     MOCLDY    53  35  50 SW16G25   29.67F

...NORTHERN KANSAS...

CITY           SKY/WX    TMP DP  RH WIND       PRES   REMARKS
GOODLAND       CLOUDY    47  18  31 W3        29.75F
HILL CITY      MOCLDY    45  20  36 W6        29.71S
NORTON         CLEAR     48  12  23 SW8       29.68F
PHILLIPSBURG   CLEAR     46  25  42 CALM      29.69S
SMITH CENTER   CLEAR     48  27  43 SE3       29.68F
BELOIT         CLEAR     54  32  43 S8        29.68S
HAYS           CLOUDY    50  25  37 CALM      29.72F
RUSSELL        CLOUDY    47  30  51 S10       29.71F
CONCORDIA      CLOUDY    52  35  52 S21G29    29.67F
SALINA         CLOUDY    50  35  56 S12       29.73F
TOPEKA         CLOUDY    55  36  48 S7        29.75F



USA.gov is the U.S. government's official web portal to all federal, state and local government web resources and services.